Home   Weather   42°05'N, 91°42'W   Past weeks
Flag for USA

Past Weather in 42°05'N, 91°42'W, USA — Yesterday and Last 2 Weeks

Now
-5 °F

Clear.


Feels Like: -18 °F
Forecast: 18 / -6 °F
Wind: 6 mph from Southeast

Location: Cedar Rapids Municipal Airport

Current Time: Jan 21, 2019 at 3:40:06 am

Latest Report: Jan 21, 2019 at 2:52 am


Visibility: 10 mi

Pressure: 30.48 "Hg

Humidity: N/A

Dew Point: N/A

Location of 42°05'N, 91°42'WLocation

Past Weather in 42°05'N, 91°42'W — Graph

°F

42°05'N, 91°42'W Temperature Yesterday

Maximum temperature yesterday: 11 °F (at 2:52 pm)
Minimum temperature yesterday: -3 °F (at 12:52 am)
Average temperature yesterday: 3 °F

High & Low Weather Summary for the Past Weeks

 TemperatureHumidityPressure
High49 °F (Jan 7, 11:52 am)100% (Jan 6, 1:52 am)30.51 "Hg (Jan 6, 1:52 am)
Low-5 °F (Jan 21, 1:52 am)53% (Jan 8, 1:52 pm)29.51 "Hg (Jan 7, 8:59 am)
Average25 °F86%30.20 "Hg
* Reported Jan 6 1:52 am — Jan 21 1:52 am, 42°05'N, 91°42'W. Weather by CustomWeather, © 2019

Note: Actual official high and low records may vary slightly from our data, if they occured in-between our weather recording intervals... More about our weather records

Advertising

42°05'N, 91°42'W Weather History for the Previous 24 Hours

Scroll right to see more
 ConditionsComfort  
Time TempWeatherWind HumidityBarometerVisibility
1:52 am
Mon, Jan 21
-5 °FClear.5 mph83%30.49 "Hg10 mi
12:52 am-4 °FClear.7 mph79%30.50 "Hg10 mi
11:52 pm
Sun, Jan 20
-1 °FClear.5 mph71%30.51 "Hg10 mi
10:52 pm-1 °FClear.7 mph71%30.50 "Hg10 mi
9:52 pm0 °FClear.7 mph71%30.50 "Hg10 mi
8:52 pm2 °FClear.9 mph72%30.50 "Hg10 mi
7:52 pm2 °FClear.7 mph76%30.50 "Hg10 mi
6:52 pm4 °FClear.7 mph73%30.49 "Hg10 mi
5:52 pm5 °FClear.8 mph69%30.47 "Hg10 mi
4:52 pm7 °FSunny.7 mph63%30.47 "Hg10 mi
3:52 pm9 °FSunny.7 mph64%30.45 "Hg10 mi
2:52 pm11 °FScattered clouds.3 mph64%30.43 "Hg10 mi
1:52 pm9 °FScattered clouds.5 mph70%30.44 "Hg10 mi
12:52 pm9 °FOvercast.5 mph70%30.45 "Hg10 mi
11:52 am6 °FMostly cloudy.5 mph79%30.45 "Hg4 mi
11:27 am6 °FLight snow. Mostly cloudy.5 mph76%30.39 "Hg2 mi
10:52 am6 °FOvercast.6 mph73%30.46 "Hg10 mi
9:52 am5 °FOvercast.7 mph72%30.44 "Hg10 mi
8:52 am4 °FMostly cloudy.9 mph80%30.40 "Hg10 mi
7:52 am0 °FPartly sunny.8 mph83%30.40 "Hg10 mi
6:52 am-1 °FClear.7 mph82%30.38 "Hg10 mi
5:52 am1 °FPassing clouds.6 mph79%30.37 "Hg10 mi
4:52 am1 °FOvercast.7 mph79%30.37 "Hg10 mi
3:52 am0 °FOvercast.9 mph79%30.36 "Hg10 mi
Weather by CustomWeather, © 2019

See weather overview